Regional Weather Roundup
Issued by NWS

Home | Current Version | Previous Version | Graphics & Text | Print | Product List | Glossary On
Versions: 1 2 3 4 5 6 7 8 9 10 11 12 13 14 15 16 17 18 19 20 21 22 23 24 25 26 27 28 29 30 31 32 33 34 35 36 37 38 39 40 41 42 43 44 45 46 47 48 49 50
000
ASUS43 KLSX 012059
RWRMO

WEATHER SUMMARY FOR MISSOURI
NATIONAL WEATHER SERVICE SPRINGFIELD MO
400 PM CDT WED OCT 01 2014

NOTE: "FAIR" INDICATES FEW OR NO CLOUDS BELOW 12,000 FEET WITH NO
       SIGNIFICANT WEATHER AND/OR OBSTRUCTIONS TO VISIBILITY.
       CURRENT SKY AND/OR WEATHER CONDITIONS ARE NOT AVAILABLE FOR
       CHILLICOTHE AND FARMINGTON.

MOZ001>031-035>038-043-044-053-054-012200-
...NORTHERN AND WESTERN MISSOURI...

CITY           SKY/WX    TMP DP  RH WIND       PRES   REMARKS
KANSAS CTY INT PTSUNNY   79  69  71 S7        29.71F
KANSAS C DTWN  SUNNY     80  69  69 E6        29.69F
LEE`S SUMMIT   MOSUNNY   75  69  81 E10       29.72F
ST JOSEPH      PTSUNNY   79  68  69 SE7       29.72S
CHILLICOTHE      N/A     72  66  81 SE7       29.77R

$$
MOZ066>068-077>081-088>096-101>105-012200-
...SOUTHWEST MISSOURI...

CITY           SKY/WX    TMP DP  RH WIND       PRES   REMARKS
SPRINGFIELD    MOSUNNY   86  65  49 S17       29.77F
JOPLIN         MOSUNNY   82  67  60 S15G25    29.73F

$$
MOZ032>034-039>042-045>050-055>058-069>072-012200-
...CENTRAL MISSOURI...

CITY           SKY/WX    TMP DP  RH WIND       PRES   REMARKS
COLUMBIA       CLOUDY    71  67  87 NE10      29.77S
JEFFERSON CITY PTSUNNY   85  64  49 SE5       29.73F
ROLLA          MOSUNNY   85  61  44 S16       29.78S
SEDALIA        TSTM      68  65  90 NE9       29.75F
OSAGE BEACH    PTSUNNY   88  64  45 S14       29.75F

$$
MOZ051-052-059>065-012200-
...EAST CENTRAL MISSOURI...

CITY           SKY/WX    TMP DP  RH WIND       PRES   REMARKS
ST LOUIS INTL  MOSUNNY   88  63  43 S15G24    29.80F
SPIRIT OF STL  PTSUNNY   85  63  47 S6        29.77F
ST CHARLES     MOSUNNY   88  63  43 SE15      29.79F

$$
MOZ072>076-082>087-097>100-106>115-012200-
...SOUTH CENTRAL AND SOUTHEAST MISSOURI...

CITY           SKY/WX    TMP DP  RH WIND       PRES   REMARKS
CAPE GIRARDEAU SUNNY     85  63  47 S9        29.84F
FARMINGTON     SUNNY     86  63  45 S16       29.86S
POPLAR BLUFF   MOSUNNY   88  63  43 S12       29.82F
WEST PLAINS    MOSUNNY   85  64  49 S16       29.83F

$$



USA.gov is the U.S. government's official web portal to all federal, state and local government web resources and services.